Weather in Okunevka

Russia / Republic of Crimea     45°22′07″N   32°45′42″E
temp.,
°C
wind,
m/s
gust,
m/s
humid.,
%
clouds,
%
prec.,
mm/h
press.,
hPa
HPBL,
m
26 february, fri
fri2600:00+7wsw568858 0.0 1032245
03:00+7wsw578878 0.0 1030167
06:00+8w5788100 0.0 1029114
09:00+8w458790 0.0 102973
12:00+8wsw67850 0.0 1028120
15:00+9wsw69860 0.0 1026165
18:00+8sw68880 0.0 1024161
21:00+8sw68880 0.0 1024160
27 february, sat
sat2700:00+8sw710890 0.0 1022219
03:00+8sw711890 0.0 1021255
06:00+8sw710900 0.0 1020229
09:00+8wsw68900 0.0 1019182
12:00+8w55900 0.0 1019102
15:00+8nw55840 0.0 101892
18:00+8nnw710839 0.0 1018217
21:00+7nnw10128550 0.0 1019544
28 february, sun
sun2800:00+6nnw91076100 0.1 1020814
03:00+6nnw8973100 0.1 10201059
06:00+5nnw91085100 0.1 1020618
09:00+5nnw787999 0.1 1021885
12:00+5nnw7879100 0.1 1022740
15:00+5nnw8978100 0.3 1023871
18:00+5nnw91078100 0.1 1023916
21:00+5nnw897581 0.2 1025835
1 march, mon
mon100:00+5nnw777494 0.1 1025831
03:00+4nnw667597 0.3 1026763
06:00+4nnw5673100 0.1 1025822
09:00+4n5673100 0.3 1027826
12:00+4n4468100 0.1 1028888
15:00+5nnw556795 0.2 1028890
18:00+4n666966 0.0 1029917
21:00+5nne566847 0.0 1031854
2 march, tue
tue200:00+4ne666394 0.1 10321188
03:00+4nne555897 0.1 10331258
06:00+4nne5567100 0.1 1033960
09:00+3nne5567100 0.1 1034934
12:00+4nnw455991 0.0 10341067
15:00+4wnw666793 0.0 1033924
18:00+5wnw787556 0.0 1031736
21:00+6w8107677 0.0 1031594